Sitka, AK

5:36 AM AKST on January 18, 2017 (GMT -0900)
Sitka Rocky Gutierrez

Weather History for PASI - October, 2012

Change the Weather History Date:

Thursday, October 18, 2012

  Actual Average Record
Temperature  
Mean Temperature 38 °F -  
Max Temperature 42 °F 48 °F 61 °F (1952)
Min Temperature 34 °F 41 °F 30 °F (1990)
Degree Days  
Heating Degree Days 26    
Moisture  
Dew Point 36 °F    
Average Humidity 90    
Maximum Humidity 100    
Minimum Humidity 76    
Precipitation  
Precipitation 0.36 in - - ()
Sea Level Pressure  
Sea Level Pressure 29.77 in    
Wind  
Wind Speed 7 mph (ESE)    
Max Wind Speed 14 mph    
Max Gust Speed 20 mph    
Visibility 9 miles    
Events Rain    
Averages and records for this station are not official NWS values.
T = Trace of Precipitation, MM = Missing Value Source: NWS Daily Summary

Daily Weather History Graph

Daily Weather History Graph

Search for Another Location

Airport or City:

Trip Planner

Search our weather history database for the weather conditions in past years. The results will help you decide how hot, cold, wet, or windy it might be!

Date:

Astronomy

Oct. 18, 2012 Rise Set
Actual Time 7:42 AM AKDT 5:49 PM AKDT
Civil Twilight 7:03 AM AKDT 6:28 PM AKDT
Nautical Twilight 6:19 AM AKDT 7:12 PM AKDT
Astronomical Twilight 5:34 AM AKDT 7:56 PM AKDT
Moon 12:18 PM AKDT 7:45 PM AKDT
Length of Visible Light 11h 24m
Length of Day
10h 06m
Waxing Crescent, 15% of the Moon is Illuminated
Oct 18
Waxing Crescent
Oct 21
First Quarter
Oct 29
Full
Nov 6
Last Quarter
Nov 13
New

Hourly Weather History & Observations

Time (AKDT) Temp. Windchill Dew Point Humidity Pressure Visibility Wind Dir Wind Speed Gust Speed Precip Events Conditions
12:53 AM 37.0 °F 32.4 °F 35.1 °F 93% 29.72 in 10.0 mi East 5.8 mph - N/A   Scattered Clouds
1:53 AM 37.9 °F 33.5 °F 36.0 °F 93% 29.74 in 10.0 mi East 5.8 mph - N/A   Mostly Cloudy
2:45 AM 39.2 °F - 35.6 °F 87% 29.75 in 5.0 mi Calm Calm - 0.01 in Rain Light Rain
2:53 AM 39.0 °F - 35.1 °F 86% 29.75 in 10.0 mi Calm Calm - 0.01 in Rain Light Rain
3:03 AM 37.4 °F 34.9 °F 35.6 °F 93% 29.75 in 10.0 mi Variable 3.5 mph - N/A   Overcast
3:15 AM 39.2 °F 33.0 °F 37.4 °F 93% 29.77 in 5.0 mi South 9.2 mph - 0.03 in Rain Rain
3:53 AM 37.9 °F 33.5 °F 36.0 °F 93% 29.77 in 10.0 mi ESE 5.8 mph - 0.03 in Rain Light Rain
4:06 AM 37.4 °F 28.9 °F 37.4 °F 100% 29.78 in 4.0 mi South 13.8 mph 19.6 mph 0.04 in Rain Rain
4:35 AM 35.6 °F 28.6 °F 33.8 °F 93% 29.78 in 10.0 mi East 9.2 mph - 0.07 in   Overcast
4:53 AM 36.0 °F 28.5 °F 34.0 °F 93% 29.77 in 10.0 mi East 10.4 mph - 0.07 in   Scattered Clouds
5:53 AM 39.0 °F 31.0 °F 36.0 °F 89% 29.78 in 10.0 mi East 13.8 mph - 0.00 in   Mostly Cloudy
6:53 AM 39.0 °F 31.8 °F 36.0 °F 89% 29.78 in 10.0 mi East 11.5 mph - 0.01 in   Mostly Cloudy
7:53 AM 37.9 °F 34.4 °F 35.1 °F 89% 29.79 in 10.0 mi East 4.6 mph - 0.00 in   Overcast
8:32 AM 39.2 °F 33.6 °F 35.6 °F 87% 29.81 in 4.0 mi SE 8.1 mph - 0.01 in Rain Light Rain
8:39 AM 37.4 °F 30.3 °F 35.6 °F 93% 29.82 in 4.0 mi South 10.4 mph - 0.03 in Rain Rain
8:53 AM 37.0 °F 30.4 °F 35.1 °F 93% 29.81 in 10.0 mi East 9.2 mph - 0.07 in Rain Light Rain
9:12 AM 35.6 °F 28.6 °F 35.6 °F 100% 29.81 in 10.0 mi East 9.2 mph - 0.00 in   Mostly Cloudy
9:53 AM 39.9 °F 33.9 °F 36.0 °F 86% 29.81 in 10.0 mi East 9.2 mph - 0.00 in   Overcast
10:53 AM 41.0 °F 34.3 °F 36.0 °F 82% 29.82 in 5.0 mi SE 11.5 mph 17.3 mph 0.01 in Rain Light Rain
11:03 AM 39.2 °F 34.2 °F 35.6 °F 87% 29.83 in 4.0 mi Variable 6.9 mph - 0.04 in Rain Rain
11:53 AM 39.0 °F 32.8 °F 37.0 °F 93% 29.83 in 8.0 mi ESE 9.2 mph - 0.11 in Rain Light Rain
12:16 PM 39.2 °F 33.0 °F 37.4 °F 93% 29.82 in 10.0 mi East 9.2 mph - 0.01 in Rain Light Rain
12:53 PM 39.0 °F 31.0 °F 36.0 °F 89% 29.83 in 8.0 mi ESE 13.8 mph 19.6 mph 0.02 in Rain Light Rain
1:53 PM 42.1 °F 35.7 °F 37.0 °F 82% 29.81 in 10.0 mi ESE 11.5 mph - 0.03 in   Scattered Clouds
2:53 PM 42.1 °F 35.7 °F 36.0 °F 79% 29.79 in 10.0 mi ESE 11.5 mph - N/A   Mostly Cloudy
3:18 PM 42.8 °F 37.5 °F 35.6 °F 76% 29.79 in 10.0 mi SE 9.2 mph - N/A   Overcast
3:53 PM 41.0 °F 35.8 °F 37.0 °F 86% 29.79 in 10.0 mi WSW 8.1 mph - 0.00 in   Mostly Cloudy
4:53 PM 41.0 °F 39.0 °F 37.0 °F 86% 29.77 in 10.0 mi East 3.5 mph - N/A   Mostly Cloudy
5:53 PM 39.0 °F 34.0 °F 37.0 °F 93% 29.75 in 10.0 mi East 6.9 mph - N/A   Scattered Clouds
6:53 PM 37.0 °F 32.4 °F 35.1 °F 93% 29.73 in 10.0 mi East 5.8 mph - N/A   Scattered Clouds
7:53 PM 37.0 °F 31.0 °F 34.0 °F 89% 29.72 in 10.0 mi East 8.1 mph - N/A   Partly Cloudy
8:53 PM 36.0 °F 31.1 °F 34.0 °F 93% 29.71 in 10.0 mi East 5.8 mph - N/A   Partly Cloudy
9:53 PM 35.1 °F 31.0 °F 33.1 °F 92% 29.70 in 10.0 mi NE 4.6 mph - N/A   Clear
10:53 PM 35.1 °F 30.1 °F 33.1 °F 92% 29.69 in 10.0 mi East 5.8 mph - N/A   Clear
11:53 PM 34.0 °F - 32.0 °F 92% 29.68 in 10.0 mi Calm Calm - N/A   Clear